Location: Franzen
(48.6167°N, 15.3833°E)
Time: 14:10:09
(UTC+00:00)

Cosmos 1140 Rocket - Pass Details

Date: 22 April 2021
Orbit: 744 x 767 km, 74.1° (Epoch: 16 May)

Event Time Altitude Azimuth Distance (km) Brightness Sun altitude
Rises 18:32:55 0° 167° (SSE) 3,174 6.3 -5.8°
Reaches altitude 10° 18:35:35 10° 155° (SSE) 2,255 5.5 -6.2°
Maximum altitude 18:39:45 26° 100° (E) 1,443 4.4 -6.8°
Drops below altitude 10° 18:43:56 10° 45° (NE) 2,269 5.8 -7.4°
Sets 18:46:37 0° 33° (NNE) 3,200 6.7 -7.8°
